Flag for Canada Weather past 2 weeks in Chatham-Kent, Ontario, Canada

Now
68 °F

Mild.


Feels Like: 68 °F
Forecast: 68 / 80 °F
Wind: 3 mph from West

Location: Erieau

Current Time: Jul 31, 2015 at 6:16:16 AM

Latest Report: Jul 31, 2015 at 5:00 AM


Visibility: N/A

Pressure: 29.90 "Hg

Humidity: 78%

Dew point: 61 °F

Location of Chatham-KentLocation

Historic Weather in Chatham-Kent — Graph

°F

Chatham-Kent temperature yesterday

Maximum temperature yesterday: 82 °F (at 7:00 PM)
Minimum temperature yesterday: 71 °F (at 6:00 AM)
Average temperature yesterday: 77 °F

Past Weeks' High & Low Weather Summary

 TemperatureHumidityPressure
High84 °F (Jul 27, 7:00 PM)98% (Jul 19, 10:00 PM)30.11 "Hg (Jul 19, 10:00 PM)
Low62 °F (Jul 16, 5:00 AM)36% (Jul 30, 2:00 PM)29.67 "Hg (Jul 21, 5:00 AM)
Average73 °F75%29.91 "Hg
* Reported Jul 16 5:00 AM — Jul 31 5:00 AM, Chatham-Kent, Weather by CustomWeather, © 2015

Note: Actual official high and low records may vary slightly from our data, if they occured in-between our weather recording intervals... More about our weather records

Advertising

Chatham-Kent weather history for previous 24 hours

 ConditionsComfort  
Time TempWeatherWind HumidityBarometerVisibility
5:00 AM
Fri, Jul 31
68 °FMild.3 mph78%29.90 "HgN/A
4:00 AM68 °FMild.5 mph77%29.91 "HgN/A
3:00 AM69 °FMild.3 mph74%29.92 "HgN/A
2:00 AM69 °FMild.3 mph74%29.93 "HgN/A
1:00 AM70 °FMild.6 mph73%29.93 "HgN/A
12:00 AM71 °FMild.5 mph67%29.92 "HgN/A
11:00 PM
Thu, Jul 30
76 °FMild.6 mph53%29.92 "HgN/A
10:00 PM77 °FWarm.6 mph51%29.91 "HgN/A
9:00 PM78 °FWarm.5 mph47%29.89 "HgN/A
8:00 PM80 °FWarm.5 mph47%29.88 "HgN/A
7:00 PM82 °FWarm.7 mph42%29.88 "HgN/A
6:00 PM80 °FWarm.7 mph59%29.89 "HgN/A
5:00 PM78 °FWarm.9 mph69%29.89 "HgN/A
4:00 PM79 °FWarm.6 mph63%29.90 "HgN/A
3:00 PM79 °FWarm.7 mph63%29.91 "HgN/A
2:00 PM82 °FPleasantly warm.9 mph36%29.92 "HgN/A
1:00 PM80 °FWarm.8 mph42%29.93 "HgN/A
12:00 PM79 °FWarm.6 mph55%29.93 "HgN/A
11:00 AM78 °FWarm.5 mph62%29.93 "HgN/A
10:00 AM77 °FWarm.7 mph59%29.92 "HgN/A
9:00 AM75 °FMild.6 mph62%29.93 "HgN/A
8:00 AM72 °FMild.5 mph68%29.92 "HgN/A
7:00 AM71 °FMild.6 mph67%29.91 "HgN/A
6:00 AM71 °FMild.6 mph66%29.89 "HgN/A
Weather by CustomWeather, © 2015

See weather overviewHow to use our weather pages